When you browse on this site, cookies collect data to enhance your experience and personalize the content and advertising you see.
Visit our Privacy Policy to learn more. By continuing to use the site, you agree to this use of cookies and data.
  • In France
  • List of Countries
  • For 7 days
  • Water Temperature
  • Satellite Maps
  • Weather Map
  • Weather Widgets
  • user-avatar
    Login

    Hourly Weather Nashavar

    Today, 16 February, Saturday

    Time Temperature Precipitation Wind Pressure Humidity
    00:00 +12°C° 0 mm 3 mps 733 mmHg 21%
    01:00 +11°C° 0 mm 3 mps 733 mmHg 21%
    02:00 +12°C° 0 mm 2 mps 733 mmHg 21%
    03:00 +10°C° 0 mm 2 mps 733 mmHg 21%
    04:00 +10°C° 0 mm 2 mps 733 mmHg 21%
    05:00 +10°C° 0 mm 2 mps 733 mmHg 21%
    06:00 +10°C° 0 mm 2 mps 733 mmHg 22%
    07:00 +10°C° 0 mm 2 mps 733 mmHg 22%
    08:00 +10°C° 0 mm 2 mps 734 mmHg 23%
    09:00 +13°C° 0 mm 2 mps 734 mmHg 21%
    10:00 +15°C° 0 mm 2 mps 734 mmHg 18%
    11:00 +17°C° 0 mm 2 mps 734 mmHg 16%
    12:00 +18°C° 0 mm 2 mps 734 mmHg 16%
    13:00 +19°C° 0 mm 2 mps 733 mmHg 16%
    14:00 +21°C° 0 mm 1 mps 733 mmHg 16%
    15:00 +21°C° 0 mm 1 mps 733 mmHg 17%
    16:00 +21°C° 0 mm 1 mps 733 mmHg 18%
    17:00 +21°C° 0 mm 1 mps 733 mmHg 19%
    18:00 +19°C° 0 mm 1 mps 733 mmHg 21%
    19:00 +18°C° 0 mm 1 mps 733 mmHg 23%
    20:00 +15°C° 0 mm 1 mps 734 mmHg 25%
    21:00 +15°C° 0 mm 1 mps 734 mmHg 24%
    22:00 +15°C° 0 mm 1 mps 734 mmHg 24%
    23:00 +15°C° 0 mm 1 mps 734 mmHg 23%

    Tomorrow, 17 February, Sunday

    Time Temperature Precipitation Wind Pressure Humidity
    00:00 +14°C° 0 mm 1 mps 733 mmHg 23%
    01:00 +14°C° 0 mm 1 mps 733 mmHg 23%
    02:00 +14°C° 0 mm 1 mps 733 mmHg 23%
    03:00 +14°C° 0 mm 1 mps 732 mmHg 23%
    04:00 +14°C° 0 mm 1 mps 732 mmHg 24%
    05:00 +13°C° 0 mm 1 mps 732 mmHg 24%
    06:00 +14°C° 0 mm 1 mps 732 mmHg 25%
    07:00 +14°C° 0 mm 1 mps 732 mmHg 26%
    08:00 +14°C° 0 mm 1 mps 732 mmHg 27%
    09:00 +15°C° 0 mm 1 mps 732 mmHg 25%
    10:00 +18°C° 0 mm 1 mps 732 mmHg 22%
    11:00 +19°C° 0 mm 1 mps 732 mmHg 19%
    12:00 +20°C° 0 mm 1 mps 731 mmHg 18%
    13:00 +21°C° 0 mm 1 mps 730 mmHg 18%
    14:00 +22°C° 0 mm 1 mps 730 mmHg 17%
    15:00 +22°C° 0 mm 1 mps 729 mmHg 18%
    16:00 +22°C° 0 mm 1 mps 729 mmHg 19%
    17:00 +20°C° 0 mm 2 mps 728 mmHg 20%
    18:00 +20°C° 0 mm 1 mps 729 mmHg 22%
    19:00 +19°C° 0 mm 1 mps 729 mmHg 23%
    20:00 +18°C° 0 mm 1 mps 729 mmHg 25%
    21:00 +16°C° 0 mm 1 mps 729 mmHg 26%
    22:00 +16°C° 0 mm 1 mps 729 mmHg 28%
    23:00 +15°C° 0 mm 1 mps 729 mmHg 30%

    Day after tomorrow, 18 February, Monday

    Time Temperature Precipitation Wind Pressure Humidity
    00:00 +15°C° 0 mm 1 mps 729 mmHg 31%
    01:00 +15°C° 0 mm 1 mps 729 mmHg 33%
    02:00 +14°C° 0 mm 1 mps 729 mmHg 35%
    03:00 +14°C° 0 mm 1 mps 728 mmHg 37%
    04:00 +14°C° 0 mm 2 mps 728 mmHg 38%
    05:00 +14°C° 0 mm 2 mps 728 mmHg 40%
    06:00 +14°C° 0 mm 2 mps 728 mmHg 42%
    07:00 +14°C° 0 mm 2 mps 729 mmHg 44%
    08:00 +14°C° 0 mm 1 mps 729 mmHg 46%
    09:00 +15°C° 0 mm 1 mps 729 mmHg 43%
    10:00 +16°C° 0 mm 1 mps 730 mmHg 41%
    11:00 +16°C° 0 mm 1 mps 730 mmHg 38%
    12:00 +17°C° 0 mm 2 mps 729 mmHg 38%
    13:00 +17°C° 0 mm 2 mps 729 mmHg 38%
    14:00 +17°C° 0 mm 3 mps 728 mmHg 38%
    15:00 +17°C° 0 mm 3 mps 728 mmHg 40%
    16:00 +17°C° 0 mm 2 mps 728 mmHg 42%
    17:00 +17°C° 0 mm 2 mps 728 mmHg 44%
    18:00 +16°C° 0.1 mm 2 mps 728 mmHg 48%
    19:00 +15°C° 0.1 mm 1 mps 729 mmHg 53%
    20:00 +14°C° 0.1 mm 1 mps 729 mmHg 57%
    21:00 +13°C° 0.1 mm 1 mps 729 mmHg 59%
    22:00 +13°C° 0.1 mm 1 mps 729 mmHg 60%
    23:00 +13°C° 0.1 mm 1 mps 730 mmHg 61%

    19 February, Tuesday

    Time Temperature Precipitation Wind Pressure Humidity
    00:00 +12°C° 0 mm 1 mps 730 mmHg 63%
    01:00 +12°C° 0 mm 1 mps 730 mmHg 64%
    02:00 +12°C° 0 mm 2 mps 730 mmHg 66%
    03:00 +10°C° 0 mm 2 mps 730 mmHg 66%
    04:00 +10°C° 0 mm 2 mps 729 mmHg 66%
    05:00 +9°C° 0 mm 2 mps 729 mmHg 66%
    06:00 +10°C° 0 mm 2 mps 730 mmHg 63%
    07:00 +11°C° 0 mm 1 mps 731 mmHg 61%
    08:00 +11°C° 0 mm 1 mps 731 mmHg 58%
    09:00 +13°C° 0 mm 2 mps 732 mmHg 50%
    10:00 +14°C° 0 mm 2 mps 732 mmHg 43%
    11:00 +15°C° 0 mm 2 mps 733 mmHg 35%
    12:00 +16°C° 0 mm 2 mps 732 mmHg 33%
    13:00 +17°C° 0 mm 2 mps 732 mmHg 31%
    14:00 +18°C° 0 mm 2 mps 732 mmHg 29%
    15:00 +18°C° 0 mm 2 mps 732 mmHg 30%
    16:00 +18°C° 0 mm 2 mps 732 mmHg 30%
    17:00 +19°C° 0 mm 1 mps 732 mmHg 31%
    18:00 +18°C° 0 mm 1 mps 733 mmHg 33%
    19:00 +16°C° 0 mm 1 mps 734 mmHg 36%
    20:00 +15°C° 0 mm 1 mps 734 mmHg 38%
    21:00 +15°C° 0.4 mm 1 mps 734 mmHg 43%
    22:00 +14°C° 0.4 mm 2 mps 735 mmHg 48%
    23:00 +13°C° 0.4 mm 2 mps 735 mmHg 53%

    20 February, Wednesday

    Time Temperature Precipitation Wind Pressure Humidity
    00:00 +12°C° 0.4 mm 3 mps 735 mmHg 56%
    01:00 +11°C° 0.4 mm 3 mps 735 mmHg 59%
    02:00 +11°C° 0.4 mm 3 mps 735 mmHg 62%
    03:00 +11°C° 0.4 mm 3 mps 734 mmHg 63%
    04:00 +10°C° 0.4 mm 3 mps 734 mmHg 65%
    05:00 +10°C° 0.4 mm 4 mps 734 mmHg 66%
    06:00 +10°C° 0.6 mm 3 mps 735 mmHg 67%
    07:00 +10°C° 0.6 mm 3 mps 735 mmHg 68%
    08:00 +10°C° 0.6 mm 3 mps 735 mmHg 69%
    09:00 +10°C° 0.4 mm 3 mps 735 mmHg 65%
    10:00 +11°C° 0.4 mm 3 mps 736 mmHg 62%
    11:00 +12°C° 0.4 mm 2 mps 736 mmHg 58%
    12:00 +12°C° 0 mm 3 mps 735 mmHg 57%
    13:00 +12°C° 0 mm 3 mps 735 mmHg 55%
    14:00 +13°C° 0 mm 3 mps 734 mmHg 53%
    15:00 +13°C° 0.1 mm 2 mps 734 mmHg 55%
    16:00 +13°C° 0.1 mm 2 mps 733 mmHg 58%
    17:00 +13°C° 0.1 mm 2 mps 733 mmHg 60%
    18:00 +12°C° 0.5 mm 2 mps 733 mmHg 64%
    19:00 +12°C° 0.5 mm 2 mps 733 mmHg 68%
    20:00 +12°C° 0.5 mm 2 mps 733 mmHg 72%
    21:00 +10°C° 0.7 mm 2 mps 733 mmHg 74%
    22:00 +10°C° 0.7 mm 2 mps 732 mmHg 76%
    23:00 +10°C° 0.7 mm 2 mps 732 mmHg 78%

    21 February, Thursday

    Time Temperature Precipitation Wind Pressure Humidity
    00:00 +10°C° 0.7 mm 2 mps 731 mmHg 78%
    01:00 +10°C° 0.7 mm 2 mps 731 mmHg 78%
    02:00 +10°C° 0.7 mm 2 mps 730 mmHg 78%
    03:00 +11°C° 0.3 mm 1 mps 729 mmHg 78%
    04:00 +11°C° 0.3 mm 1 mps 729 mmHg 78%
    05:00 +11°C° 0.3 mm 1 mps 728 mmHg 77%
    06:00 +11°C° 0.1 mm 1 mps 729 mmHg 76%
    07:00 +11°C° 0.1 mm 1 mps 729 mmHg 75%
    08:00 +11°C° 0.1 mm 1 mps 730 mmHg 75%
    09:00 +12°C° 0 mm 1 mps 730 mmHg 71%
    10:00 +13°C° 0 mm 1 mps 731 mmHg 68%
    11:00 +14°C° 0 mm 2 mps 732 mmHg 64%
    12:00 +14°C° 0 mm 2 mps 731 mmHg 63%
    13:00 +15°C° 0 mm 2 mps 731 mmHg 61%
    14:00 +16°C° 0 mm 2 mps 731 mmHg 60%
    15:00 +16°C° 0 mm 2 mps 731 mmHg 61%
    16:00 +16°C° 0 mm 2 mps 731 mmHg 63%
    17:00 +15°C° 0 mm 2 mps 731 mmHg 65%
    18:00 +15°C° 0 mm 2 mps 731 mmHg 69%
    19:00 +14°C° 0 mm 1 mps 732 mmHg 73%
    20:00 +13°C° 0 mm 1 mps 732 mmHg 78%
    21:00 +13°C° 0.2 mm 1 mps 732 mmHg 80%
    22:00 +12°C° 0.2 mm 1 mps 733 mmHg 82%
    23:00 +12°C° 0.2 mm 1 mps 733 mmHg 85%
    Show more